Location: Urbino
(43.7170°N, 12.6330°E)
Time: 06:10:44
(UTC+01:00)

ISS - Visible Passes

Search period start: 20 January 2019 00:00
Search period end: 30 January 2019 00:00
Orbit: 404 x 410 km, 51.6° (Epoch: 20 January)

Date Brightness Start Highest point End Pass type
(mag) Time Alt. Az. Time Alt. Az. Time Alt. Az.
21 Jan -1.9 18:44:21 10° S 18:46:04 19° SSE 18:46:04 19° SSE visible
22 Jan -1.5 17:54:36 10° SSE 17:55:42 11° SE 17:56:49 10° ESE visible
22 Jan -1.6 19:28:27 10° SW 19:29:55 24° SW 19:29:55 24° SW visible
23 Jan -3.4 18:37:15 10° SW 18:40:25 47° SE 18:40:56 42° ESE visible
24 Jan -2.4 17:46:20 10° SSW 17:49:09 26° SE 17:51:52 11° E visible
24 Jan -2.2 19:22:21 10° WSW 19:24:36 35° WNW 19:24:36 35° WNW visible
25 Jan -3.8 18:30:47 10° WSW 18:34:05 76° NNW 18:35:27 32° NE visible
26 Jan -3.6 17:39:26 10° SW 17:42:41 62° SE 17:45:57 10° ENE visible
26 Jan -2.1 19:16:29 10° W 19:18:57 28° NNW 19:18:57 28° NNW visible
27 Jan -2.8 18:24:42 10° W 18:27:50 39° NNW 18:29:41 20° NE visible
28 Jan -1.9 19:10:40 10° WNW 19:13:05 22° NNW 19:13:05 22° NNW visible
29 Jan -2.2 18:18:49 10° WNW 18:21:40 26° NNW 18:23:44 15° NE visible
29 Jan -0.5 19:56:22 10° NW 19:56:27 10° NW 19:56:27 10° NW visible
